Tracking 28790 objects as of 18-Apr-2024
HD Live streaming from Space Station
objects crossing your sky now

STARLINK-3229

Track STARLINK-3229 now!
10-day predictions
STARLINK-3229 is classified as:


NORAD ID: 49751
Int'l Code: 2021-115AD
Perigee: 546.2 km
Apogee: 547.8 km
Inclination: 53.2 °
Period: 95.4 minutes
Semi major axis: 6917 km
RCS: Unknown
Launch date: December 2, 2021
Source: United States (US)
Launch site: AIR FORCE EASTERN TEST RANGE (AFETR)
Your satellite tracking list
Your tracking list is empty




NASA's NSSDC Master Catalog

Two Line Element Set (TLE):
1 49751U 21115AD  24108.95675759 -.00010324  00000-0 -63198-3 0  9996
2 49751  53.2184   9.8622 0001175  97.2311 262.8815 15.08812799132373
Source of the keplerian elements: AFSPC